[[{"header":{"parameterUnit":"m.s-1","parameterCategory":1,"la1":30.2991,"la2":30.254,"lo1":-89.0895,"lo2":-89.0444,"dy":0.0017,"dx":0.0017,"nx":28,"ny":28,"refTime":"2023-07-26T21:00:00:Z","depth":0,"parameterNumber":2,"parameterNumberName":"U-component_of_WINDS"},"data":[0,0,0,0,0,0,0,0,0,0,0,0,0,0,0,0,0,0,0,0,0,0,0,0,0,0,0,0,0,0,0,0,0,0,0,0,0,0,0,0,0,0,0,0,0,0,0,0,0,0,0,0,0,0,0,0,0,0,1.4328,1.4329,0,1.4418,1.4419,1.442,1.4434,1.4433,1.4432,1.4432,1.4522,1.4526,1.4529,0,0,0,0,0,0,0,0,0,0,0,0,0,1.4164,1.4167,1.4328,1.4329,1.433,1.4418,1.4419,1.442,1.4434,1.4433,1.4432,1.4431,1.4521,1.4525,1.4529,0,0,0,0,0,0,0,0,0,0,0,0,0,1.4243,1.4168,1.4327,1.4347,1.435,1.4418,1.4419,1.4421,1.4434,1.4433,1.4432,1.4431,1.452,1.4525,1.4529,1.4583,0,0,1.4544,1.4546,0,0,0,0,0,0,0,0,1.4238,1.4249,1.4343,1.4346,1.4349,1.4414,1.4395,1.4475,1.4435,1.4402,1.4432,1.443,1.4487,1.4494,1.4514,1.4587,1.4591,1.4544,1.4547,1.4549,1.4551,0,0,0,0,0,0,0,1.4233,1.4245,1.4363,1.4345,1.4348,1.4351,1.4361,1.441,1.445,1.4405,1.4406,1.4417,1.4488,1.4509,1.4516,1.4592,1.4544,1.4548,1.4551,1.4553,1.4712,1.4713,0,0,0,0,0,0,1.4224,1.424,1.436,1.4366,1.429,1.4355,1.4366,1.4394,1.445,1.4457,1.4418,1.4417,1.4502,1.4511,1.4519,1.4584,1.4549,1.4554,1.4556,1.471,1.4712,1.4714,0,0,0,0,0,0,1.4221,1.4235,1.4357,1.4304,1.4319,1.4359,1.4391,1.4397,1.4418,1.446,1.4466,1.4432,1.4501,1.4513,1.4567,1.4588,1.4556,1.456,1.4709,1.4711,1.4713,1.4715,0,0,0,0,0,0,1.4216,1.4233,1.4255,1.4304,1.4322,1.4403,1.4392,1.4399,1.4426,1.4426,1.4475,1.4482,1.4501,1.456,1.4571,1.4594,1.4564,1.4707,1.471,1.4712,1.4713,1.4717,1.472,0,0,0,0,0,1.421,1.4252,1.4256,1.427,1.435,1.4404,1.4415,1.4437,1.4428,1.4449,1.4475,1.448,1.4584,1.4565,1.4578,1.4602,1.4706,1.4709,1.4712,1.4712,1.4716,1.472,0,0,0,0,0,0,1.4203,1.4258,1.4264,1.4323,1.4359,1.4407,1.4434,1.4441,1.448,1.4479,1.4504,1.4515,1.4567,1.4591,1.4569,1.4656,1.4644,1.465,1.4639,1.4643,1.4647,1.4639,1.4568,0,0,0,0,0,1.4209,1.4249,1.4295,1.4343,1.436,1.4394,1.4419,1.4433,1.4471,1.4486,1.4517,1.4553,1.4594,1.462,1.466,1.4717,1.4727,1.474,1.4743,1.4746,1.475,1.478,1.4786,1.4724,1.4724,1.4724,0,0,1.422,1.4255,1.4279,1.4342,1.4372,1.4412,1.4407,1.445,1.448,1.4493,1.4545,1.4569,1.4611,1.4666,1.4692,1.4687,1.477,1.475,1.4752,1.4755,1.4784,1.479,1.4795,1.4726,1.4725,1.4725,0,0,1.4261,1.4293,1.4335,1.4365,1.441,1.4432,1.4442,1.4489,1.4505,1.4559,1.4569,1.4604,1.4674,1.4703,1.4727,1.4779,1.4784,1.4791,1.4808,1.4838,1.4842,1.4847,1.4864,1.487,1.4796,1.4796,1.4796,0,1.4269,1.4331,1.4355,1.4398,1.4425,1.4439,1.4481,1.4509,1.4564,1.4582,1.4576,1.4663,1.4693,1.4754,1.4766,1.4786,1.4797,1.4785,1.484,1.4845,1.4849,1.4866,1.4872,1.4796,1.4796,1.4796,1.4796,0,1.4338,1.4381,1.441,1.4463,1.4493,1.4535,1.4565,1.4593,1.4604,1.4626,1.468,1.4716,1.4762,1.4778,1.479,1.4841,1.4836,1.4835,1.4823,1.4855,1.4871,1.4877,1.4797,1.4797,1.4797,1.4797,0,0,1.4377,1.4443,1.4453,1.4477,1.4528,1.4561,1.4603,1.4649,1.4672,1.471,1.4745,1.4803,1.4802,1.4829,1.4844,1.487,1.4907,1.4865,1.4867,1.487,1.4964,1.4963,1.497,1.4911,1.4912,1.4913,1.4959,0,1.4423,1.4499,1.4522,1.4586,1.4625,1.4639,1.4675,1.471,1.4732,1.4767,1.4791,1.4832,1.4828,1.4844,1.4871,1.4897,1.4925,1.4894,1.4943,1.4944,1.493,1.4979,1.4979,1.5021,1.4966,1.4967,1.4968,0,1.4486,1.4525,1.4593,1.4638,1.4655,1.4688,1.4731,1.4766,1.4804,1.4819,1.4849,1.4861,1.4905,1.4892,1.4951,1.4929,1.4951,1.4967,1.4969,1.4973,1.4957,1.4983,1.5035,1.504,1.4978,1.4977,1.4976,0,1.4506,1.4575,1.4625,1.4645,1.4699,1.4721,1.4744,1.4782,1.4808,1.4846,1.4863,1.4905,1.4928,1.496,1.4984,1.4972,1.5041,1.503,1.5053,1.5052,1.5066,1.5064,1.512,1.5082,1.5082,1.5082,1.5081,0,1.4553,1.4594,1.4634,1.4664,1.4709,1.4735,1.4779,1.4803,1.4836,1.487,1.4885,1.4917,1.4947,1.4982,1.5001,1.5046,1.5057,1.5069,1.5073,1.5067,1.5065,1.508,1.5077,1.5083,1.5083,1.5083,1.5082,0,1.4582,1.4611,1.4665,1.4712,1.4724,1.4755,1.4795,1.4824,1.4847,1.489,1.4901,1.4936,1.4979,1.5006,1.5059,1.5072,1.5121,1.5126,1.5108,1.511,1.5131,1.5128,1.5197,1.5207,1.5163,1.5164,1.5164,0,1.461,1.4642,1.4692,1.4716,1.4739,1.4778,1.4805,1.4831,1.4858,1.4904,1.4927,1.4971,1.5007,1.5073,1.5103,1.5144,1.5148,1.517,1.5155,1.5147,1.5147,1.5144,1.5147,1.5172,1.5172,1.5172,1.5173,0,1.4656,1.4669,1.4707,1.4749,1.4781,1.4816,1.485,1.4869,1.4901,1.493,1.4974,1.5002,1.5057,1.5099,1.5143,1.5166,1.5174,1.5178,1.5185,1.5178,1.5166,1.5171,1.5113,1.5175,1.5175,1.5175,1.5175,1.5175,1.4684,1.4712,1.4752,1.4793,1.4822,1.4854,1.4883,1.491,1.4947,1.4994,1.5007,1.5052,1.5089,1.5149,1.5173,1.5208,1.5205,1.5216,1.5218,1.522,1.5219,1.5161,1.5216,1.5216,1.5216,1.5216,1.5216,0,1.473,1.4756,1.4794,1.4842,1.4874,1.488,1.4919,1.4945,1.4985,1.5019,1.5054,1.5104,1.5145,1.5178,1.522,1.5241,1.5246,1.5251,1.5249,1.5254,1.522,1.5209,1.5247,1.5247,1.5247,1.5247,1.5247,1.5247,1.4757,1.4804,1.4821,1.4883,1.4908,1.4953,1.4974,1.5003,1.5031,1.5085,1.512,1.5141,1.5175,1.5219,1.5257,1.5266,1.528,1.5284,1.5293,1.526,1.5257,1.5253,1.5243,1.5287,1.5287,1.5324,1.5324,1.5324]},{"header":{"parameterUnit":"m.s-1","parameterCategory":1,"la1":30.2991,"la2":30.254,"lo1":-89.0895,"lo2":-89.0444,"dy":0.0017,"dx":0.0017,"nx":28,"ny":28,"refTime":"2023-07-26T21:00:00:Z","depth":0,"parameterNumber":3,"parameterNumberName":"V-component_of_WINDS"},"data":[0,0,0,0,0,0,0,0,0,0,0,0,0,0,0,0,0,0,0,0,0,0,0,0,0,0,0,0,0,0,0,0,0,0,0,0,0,0,0,0,0,0,0,0,0,0,0,0,0,0,0,0,0,0,0,0,0,0,1.694,1.6939,0,1.6867,1.6866,1.6865,1.6799,1.6799,1.6798,1.6797,1.6718,1.6717,1.6715,0,0,0,0,0,0,0,0,0,0,0,0,0,1.7018,1.7017,1.694,1.6939,1.6938,1.6867,1.6866,1.6865,1.68,1.6799,1.6798,1.6797,1.6719,1.6717,1.6715,0,0,0,0,0,0,0,0,0,0,0,0,0,1.6968,1.7016,1.694,1.6897,1.6892,1.6867,1.6866,1.6865,1.68,1.6799,1.6797,1.6796,1.6719,1.6717,1.6715,1.6725,0,0,1.6709,1.6708,0,0,0,0,0,0,0,0,1.6971,1.6965,1.6904,1.69,1.6895,1.6841,1.6864,1.6818,1.68,1.6835,1.6797,1.6796,1.676,1.6754,1.6743,1.6721,1.6718,1.6708,1.6707,1.6706,1.6706,0,0,0,0,0,0,0,1.6975,1.6968,1.6911,1.6903,1.6898,1.688,1.6871,1.6855,1.6804,1.6832,1.6827,1.6819,1.6757,1.6745,1.6741,1.6717,1.6708,1.6707,1.6705,1.6705,1.6699,1.67,0,0,0,0,0,0,1.6985,1.6971,1.6913,1.6909,1.6931,1.6879,1.687,1.6859,1.6804,1.6795,1.682,1.6816,1.6749,1.6743,1.6738,1.6745,1.6706,1.6704,1.6703,1.6697,1.6699,1.67,0,0,0,0,0,0,1.6987,1.6981,1.6916,1.6939,1.6929,1.6879,1.6868,1.6859,1.6847,1.6796,1.6786,1.6818,1.6748,1.674,1.6729,1.6741,1.6703,1.6701,1.6696,1.6698,1.6699,1.6761,0,0,0,0,0,0,1.699,1.6982,1.6986,1.6939,1.6928,1.691,1.6869,1.6858,1.6844,1.6838,1.6791,1.6782,1.6747,1.6732,1.6727,1.6738,1.67,1.6695,1.6697,1.6699,1.6757,1.6764,1.677,0,0,0,0,0,1.6993,1.7006,1.6987,1.698,1.6933,1.6911,1.6904,1.6865,1.6845,1.6849,1.6816,1.6784,1.6741,1.6732,1.6725,1.6735,1.6694,1.6696,1.6699,1.6754,1.6763,1.677,0,0,0,0,0,0,1.7054,1.6999,1.6977,1.6976,1.6949,1.69,1.6903,1.6875,1.6852,1.6847,1.6797,1.6787,1.6781,1.6757,1.6747,1.6742,1.6713,1.6714,1.6758,1.6765,1.6771,1.6777,1.6698,0,0,0,0,0,1.7068,1.7056,1.7008,1.7011,1.6999,1.6954,1.6942,1.6914,1.6883,1.6871,1.6837,1.6808,1.6787,1.6775,1.6753,1.6754,1.6741,1.6757,1.6764,1.6769,1.6771,1.6767,1.6774,1.6708,1.6708,1.6708,0,0,1.7095,1.7064,1.7059,1.7023,1.6998,1.6986,1.6944,1.6933,1.6922,1.6869,1.6856,1.683,1.6793,1.6788,1.6783,1.6767,1.6786,1.6772,1.6777,1.6775,1.6771,1.6777,1.6783,1.671,1.6709,1.6709,0,0,1.7139,1.7115,1.7114,1.7091,1.7055,1.7025,1.7025,1.698,1.6962,1.6948,1.6908,1.6894,1.686,1.6835,1.6818,1.6852,1.6821,1.6847,1.688,1.6877,1.6883,1.6887,1.6898,1.6903,1.6848,1.6848,1.6848,0,1.7177,1.7158,1.7117,1.7108,1.7093,1.7045,1.7043,1.7022,1.6981,1.697,1.6954,1.691,1.6882,1.6869,1.6878,1.6866,1.6863,1.6851,1.6885,1.6889,1.6893,1.6903,1.6907,1.6852,1.6851,1.6851,1.6851,0,1.7207,1.7194,1.7198,1.716,1.7145,1.714,1.7097,1.7086,1.7059,1.703,1.7016,1.6981,1.6951,1.6946,1.6919,1.6929,1.692,1.6895,1.6865,1.6903,1.6911,1.6915,1.6856,1.6855,1.6854,1.6853,0,0,1.7287,1.7227,1.7229,1.7211,1.7168,1.7156,1.7148,1.7121,1.7112,1.7085,1.7076,1.7048,1.7025,1.7006,1.6975,1.6973,1.7001,1.6948,1.6947,1.6959,1.7008,1.7027,1.7032,1.6981,1.6981,1.6982,1.7011,0,1.7323,1.7307,1.727,1.7265,1.7252,1.7206,1.7199,1.7171,1.7143,1.7127,1.7096,1.7077,1.7048,1.7036,1.7032,1.6999,1.701,1.6996,1.697,1.697,1.698,1.7037,1.7056,1.7086,1.7014,1.7015,1.7015,0,1.7362,1.7339,1.7334,1.7291,1.7284,1.7279,1.725,1.7235,1.7202,1.7182,1.716,1.7127,1.7114,1.7087,1.7068,1.7059,1.7046,1.7028,1.7028,1.7023,1.6994,1.7033,1.7094,1.7098,1.702,1.702,1.7019,0,1.742,1.7388,1.738,1.7366,1.7316,1.7313,1.7292,1.7257,1.7243,1.7217,1.7207,1.7179,1.7164,1.7143,1.7102,1.7087,1.7087,1.7057,1.7068,1.707,1.707,1.707,1.713,1.7063,1.7063,1.7063,1.7063,0,1.7464,1.7462,1.7406,1.7401,1.7397,1.7353,1.735,1.7324,1.7294,1.7282,1.724,1.7229,1.7177,1.716,1.7128,1.7116,1.7109,1.7091,1.7083,1.7095,1.7097,1.7085,1.7081,1.7064,1.7064,1.7064,1.7064,0,1.7528,1.749,1.7478,1.7432,1.7421,1.742,1.7379,1.7372,1.7342,1.7328,1.7321,1.7274,1.7252,1.7209,1.7174,1.7153,1.7147,1.7133,1.7159,1.7154,1.7167,1.7166,1.722,1.7225,1.7157,1.7158,1.7158,0,1.7558,1.7555,1.7509,1.7499,1.748,1.7464,1.7449,1.7405,1.7391,1.7353,1.735,1.7324,1.7302,1.7267,1.7229,1.7201,1.7185,1.7206,1.7181,1.7193,1.7184,1.7185,1.7184,1.7212,1.7213,1.7213,1.7214,0,1.7614,1.7596,1.7577,1.7552,1.7536,1.7513,1.7488,1.7482,1.7432,1.7418,1.7395,1.7378,1.7343,1.7317,1.7284,1.726,1.7228,1.7223,1.7223,1.7235,1.725,1.7242,1.7174,1.7221,1.722,1.722,1.722,1.7219,1.7661,1.7657,1.7624,1.7604,1.7581,1.7559,1.7549,1.7519,1.75,1.7469,1.7444,1.7423,1.7388,1.7341,1.7319,1.73,1.7285,1.7287,1.7287,1.7288,1.7293,1.7254,1.7294,1.7294,1.7294,1.7293,1.7293,0,1.7715,1.7692,1.7674,1.7641,1.7625,1.7599,1.7569,1.7557,1.754,1.7511,1.749,1.7463,1.7438,1.7398,1.7369,1.7362,1.7346,1.7356,1.7355,1.735,1.7308,1.731,1.7369,1.7369,1.7369,1.7369,1.7369,1.7369,1.7741,1.7732,1.771,1.7688,1.7664,1.7645,1.763,1.7609,1.7585,1.7558,1.7538,1.7512,1.7478,1.7446,1.7422,1.741,1.7401,1.7415,1.7399,1.736,1.7353,1.7346,1.7348,1.7413,1.7413,1.7442,1.7442,1.7442]}]]